Location: Austin
(30.3000°N, 97.7500°W)
Time: 11:01:30
(UTC-05:00)

Hubble Space Telescope - Pass Details

Date: 03 April 2024
Orbit: 513 x 517 km, 28.5° (Epoch: 22 April)

Event Time Altitude Azimuth Distance (km) Brightness Sun altitude
Exits shadow 04:59:31 12° 124° (ESE) 1,597 3.5 -29.2°
Drops below altitude 10° 04:59:53 10° 122° (ESE) 1,734 3.7 -29.1°
Sets 05:02:11 0° 115° (ESE) 2,620 4.8 -28.7°
